Tunica, MS

12:35 PM CST on December 10, 2016 (GMT -0600)
Tunica

Weather History for KUTA - December, 2012

Change the Weather History Date:

Thursday, December 6, 2012

  Actual Average (KAWM) Record (KAWM)
Temperature  
Mean Temperature 56 °F -  
Max Temperature 60 °F 54 °F 71 °F (1980)
Min Temperature 51 °F 36 °F 21 °F (2005)
Degree Days  
Heating Degree Days 10    
Growing Degree Days 6 (Base 50)    
Moisture  
Dew Point 55 °F    
Average Humidity 91    
Maximum Humidity 100    
Minimum Humidity 62    
Precipitation  
Precipitation 0.02 in - - ()
Sea Level Pressure  
Sea Level Pressure 30.01 in    
Wind  
Wind Speed 3 mph (SE)    
Max Wind Speed 6 mph    
Max Gust Speed -    
Visibility 6 miles    
Events Rain    
Averages and records for this station are not official NWS values.
T = Trace of Precipitation, MM = Missing Value Source: NWS Daily Summary

Daily Weather History Graph

Daily Weather History Graph

Search for Another Location

Airport or City:

Trip Planner

Search our weather history database for the weather conditions in past years. The results will help you decide how hot, cold, wet, or windy it might be!

Date:

Astronomy

Dec. 06, 2012 Rise Set
Actual Time 6:54 AM CST 4:50 PM CST
Civil Twilight 6:27 AM CST 5:18 PM CST
Nautical Twilight 5:55 AM CST 5:49 PM CST
Astronomical Twilight 5:25 AM CST 6:20 PM CST
Moon No Moon Rise 12:01 PM CST (12/6)
Length of Visible Light 10h 51m
Length of Day
9h 55m
Waning Gibbous, 49% of the Moon is Illuminated
Dec 6
Waning Gibbous
Dec 13
New
Dec 19
First Quarter
Dec 28
Full
Jan 4
Last Quarter

Hourly Weather History & Observations

Time (CST) Temp. Dew Point Humidity Pressure Visibility Wind Dir Wind Speed Gust Speed Precip Events Conditions
12:15 AM 51.8 °F 44.6 °F 76% 30.09 in 10.0 mi NE 4.6 mph - N/A   Overcast
12:35 AM 53.6 °F 41.0 °F 62% 30.08 in 10.0 mi ENE 3.5 mph - N/A   Overcast
12:55 AM 51.8 °F 42.8 °F 71% 30.08 in 10.0 mi ENE 3.5 mph - N/A   Overcast
1:15 AM 51.8 °F 42.8 °F 71% 30.07 in 10.0 mi Calm Calm - N/A   Overcast
1:35 AM 51.8 °F 42.8 °F 71% 30.07 in 10.0 mi Calm Calm - N/A   Overcast
7:35 AM 51.8 °F 46.4 °F 82% 30.07 in 10.0 mi Calm Calm - N/A   Overcast
7:55 AM 51.8 °F 46.4 °F 82% 30.07 in 10.0 mi Calm Calm - N/A   Overcast
8:15 AM 51.8 °F 46.4 °F 82% 30.07 in 10.0 mi Calm Calm - N/A   Overcast
8:35 AM 51.8 °F 46.4 °F 82% 30.08 in 10.0 mi Calm Calm - N/A   Overcast
8:55 AM 51.8 °F 46.4 °F 82% 30.07 in 10.0 mi Calm Calm - N/A   Overcast
9:15 AM 51.8 °F 50.0 °F 94% 30.07 in 4.0 mi Calm Calm - N/A   Light Drizzle
9:35 AM 51.8 °F 50.0 °F 94% 30.08 in 5.0 mi Calm Calm - N/A   Drizzle
9:55 AM 51.8 °F 50.0 °F 94% 30.08 in 3.0 mi Calm Calm - 0.01 in Rain Light Rain
10:15 AM 53.6 °F 51.8 °F 94% 30.07 in 2.0 mi Calm Calm - N/A Rain Light Rain
10:35 AM 53.6 °F 51.8 °F 94% 30.06 in 2.5 mi ESE 3.5 mph - 0.01 in   Overcast
10:55 AM 55.4 °F 53.6 °F 94% 30.05 in 4.0 mi ESE 4.6 mph - 0.01 in   Overcast
11:15 AM 55.4 °F 53.6 °F 94% 30.04 in 1.8 mi ESE 3.5 mph - N/A   Overcast
11:35 AM 57.2 °F 55.4 °F 94% 30.03 in 4.0 mi SSE 5.8 mph - N/A   Overcast
11:55 AM 57.2 °F 55.4 °F 94% 30.02 in 4.0 mi South 3.5 mph - N/A   Overcast
12:15 PM 59.0 °F 55.4 °F 88% 30.01 in 4.0 mi Calm Calm - N/A   Overcast
12:35 PM 59.0 °F 57.2 °F 94% 30.00 in 5.0 mi South 3.5 mph - N/A   Overcast
12:55 PM 60.8 °F 57.2 °F 88% 29.99 in 5.0 mi South 3.5 mph - N/A   Overcast
1:15 PM 60.8 °F 59.0 °F 94% 29.99 in 7.0 mi South 3.5 mph - N/A   Overcast
1:35 PM 60.8 °F 59.0 °F 94% 29.98 in 7.0 mi SSW 5.8 mph - N/A   Mostly Cloudy
1:55 PM 60.8 °F 59.0 °F 94% 29.98 in 7.0 mi SSW 4.6 mph - N/A   Mostly Cloudy
2:15 PM 60.8 °F 59.0 °F 94% 29.98 in 7.0 mi SW 3.5 mph - N/A   Overcast
2:35 PM 60.8 °F 59.0 °F 94% 29.99 in 7.0 mi SSW 4.6 mph - N/A   Overcast
2:55 PM 60.8 °F 59.0 °F 94% 29.98 in 7.0 mi WSW 3.5 mph - N/A   Overcast
3:15 PM 60.8 °F 59.0 °F 94% 29.98 in 7.0 mi WSW 3.5 mph - N/A   Overcast
3:35 PM 60.8 °F 59.0 °F 94% 29.98 in 7.0 mi Calm Calm - N/A   Mostly Cloudy
3:55 PM 60.8 °F 59.0 °F 94% 29.98 in 7.0 mi Calm Calm - N/A   Overcast
4:15 PM 60.8 °F 59.0 °F 94% 29.98 in 7.0 mi Calm Calm - N/A   Overcast
4:35 PM 60.8 °F 59.0 °F 94% 29.98 in 7.0 mi Calm Calm - N/A   Overcast
4:55 PM 60.8 °F 59.0 °F 94% 29.97 in 7.0 mi Calm Calm - N/A   Overcast
5:15 PM 60.8 °F 59.0 °F 94% 29.97 in 7.0 mi Calm Calm - N/A   Overcast
5:35 PM 60.8 °F 59.0 °F 94% 29.98 in 7.0 mi Calm Calm - N/A   Overcast
5:55 PM 60.8 °F 59.0 °F 94% 29.97 in 7.0 mi Calm Calm - N/A   Overcast
6:15 PM 59.0 °F 57.2 °F 94% 29.97 in 5.0 mi ENE 4.6 mph - N/A   Overcast
6:35 PM 60.8 °F 59.0 °F 94% 29.96 in 5.0 mi East 3.5 mph - N/A   Overcast
6:55 PM 60.8 °F 57.2 °F 88% 29.97 in 5.0 mi East 3.5 mph - N/A   Overcast
7:15 PM 59.0 °F 57.2 °F 94% 29.97 in 5.0 mi ESE 4.6 mph - N/A   Overcast
7:35 PM 59.0 °F 57.2 °F 94% 29.97 in 5.0 mi ESE 4.6 mph - N/A   Overcast
7:55 PM 59.0 °F 57.2 °F 94% 29.97 in 5.0 mi SE 3.5 mph - N/A   Overcast
8:35 PM 59.0 °F 57.2 °F 94% 29.97 in 5.0 mi ESE 5.8 mph - N/A   Overcast
8:55 PM 59.0 °F 57.2 °F 94% 29.96 in 5.0 mi ESE 4.6 mph - N/A   Overcast
9:15 PM 59.0 °F 57.2 °F 94% 29.97 in 5.0 mi ESE 4.6 mph - N/A   Overcast
9:35 PM 59.0 °F 57.2 °F 94% 29.96 in 5.0 mi SE 5.8 mph - N/A   Overcast
9:55 PM 59.0 °F 57.2 °F 94% 29.95 in 5.0 mi ESE 5.8 mph - N/A   Overcast
10:15 PM 59.0 °F 57.2 °F 94% 29.95 in 5.0 mi SE 5.8 mph - N/A   Mostly Cloudy
10:35 PM 59.0 °F 59.0 °F 100% 29.95 in 5.0 mi SE 5.8 mph - N/A   Mostly Cloudy
10:55 PM 59.0 °F 59.0 °F 100% 29.95 in 5.0 mi SE 4.6 mph - N/A   Overcast
11:15 PM 59.0 °F 57.2 °F 94% 29.95 in 5.0 mi South 3.5 mph - N/A   Mostly Cloudy
11:55 PM 59.0 °F 57.2 °F 94% 29.94 in 4.0 mi Calm Calm - N/A   Overcast